Time,TemperatureF,DewpointF,PressureIn,WindDirection,WindDirectionDegrees,WindSpeedMPH,WindSpeedGustMPH,Humidity,HourlyPrecipIn,Conditions,Clouds,dailyrainin,SoftwareType,DateUTC
2013-07-30 00:04:00,61.1,60.0,30.03,ENE,62,0.0,2.0,97,0.00,,,0.80,weatherlink.com 1.10,2013-07-30 04:04:00,
2013-07-30 00:19:00,60.4,59.0,30.03,ENE,62,0.0,0.0,96,0.00,,,0.00,weatherlink.com 1.10,2013-07-30 04:19:00,
2013-07-30 00:34:00,59.2,58.0,30.03,ENE,63,1.0,4.0,96,0.00,,,0.00,weatherlink.com 1.10,2013-07-30 04:34:00,
2013-07-30 00:49:00,59.1,58.0,30.03,ENE,63,0.0,3.0,97,0.00,,,0.00,weatherlink.com 1.10,2013-07-30 04:49:00,
2013-07-30 01:04:00,58.4,57.0,30.03,ENE,63,1.0,2.0,96,0.00,,,0.00,weatherlink.com 1.10,2013-07-30 05:04:00,
2013-07-30 01:19:00,57.8,57.0,30.03,ENE,63,1.0,2.0,97,0.00,,,0.00,weatherlink.com 1.10,2013-07-30 05:19:00,
2013-07-30 01:34:00,57.9,57.0,30.03,ENE,63,3.0,3.0,97,0.00,,,0.00,weatherlink.com 1.10,2013-07-30 05:34:00,
2013-07-30 01:49:00,58.1,57.0,30.03,ENE,63,2.0,4.0,96,0.00,,,0.00,weatherlink.com 1.10,2013-07-30 05:49:00,
2013-07-30 02:04:00,57.6,57.0,30.04,ENE,63,3.0,4.0,96,0.01,,,0.01,weatherlink.com 1.10,2013-07-30 06:04:00,
2013-07-30 02:19:00,57.5,57.0,30.04,ENE,63,0.0,4.0,97,0.01,,,0.01,weatherlink.com 1.10,2013-07-30 06:19:00,
2013-07-30 02:34:00,57.6,57.0,30.04,NE,53,1.0,4.0,97,0.01,,,0.01,weatherlink.com 1.10,2013-07-30 06:34:00,
2013-07-30 02:49:00,57.5,57.0,30.03,NE,53,1.0,2.0,97,0.01,,,0.01,weatherlink.com 1.10,2013-07-30 06:49:00,
2013-07-30 03:04:00,57.5,57.0,30.03,NE,53,1.0,2.0,97,0.00,,,0.01,weatherlink.com 1.10,2013-07-30 07:04:00,
2013-07-30 03:19:00,57.4,57.0,30.03,NE,53,2.0,3.0,97,0.00,,,0.01,weatherlink.com 1.10,2013-07-30 07:19:00,
2013-07-30 03:34:00,57.5,57.0,30.03,NE,53,0.0,2.0,97,0.00,,,0.01,weatherlink.com 1.10,2013-07-30 07:34:00,
2013-07-30 03:49:00,57.1,57.0,30.03,NE,53,2.0,3.0,98,0.00,,,0.01,weatherlink.com 1.10,2013-07-30 07:49:00,
2013-07-30 04:04:00,57.2,57.0,30.03,NE,55,2.0,4.0,98,0.00,,,0.01,weatherlink.com 1.10,2013-07-30 08:04:00,
2013-07-30 04:19:00,57.2,57.0,30.03,NE,55,0.0,2.0,98,0.00,,,0.01,weatherlink.com 1.10,2013-07-30 08:19:00,
2013-07-30 04:34:00,56.9,56.0,30.03,NE,55,0.0,1.0,97,0.00,,,0.01,weatherlink.com 1.10,2013-07-30 08:34:00,
2013-07-30 04:49:00,57.0,57.0,30.04,NE,55,1.0,2.0,98,0.00,,,0.01,weatherlink.com 1.10,2013-07-30 08:49:00,
2013-07-30 05:04:00,56.7,56.0,30.04,NE,55,1.0,3.0,98,0.00,,,0.01,weatherlink.com 1.10,2013-07-30 09:04:00,
2013-07-30 05:19:00,56.8,56.0,30.04,NE,55,0.0,2.0,98,0.00,,,0.01,weatherlink.com 1.10,2013-07-30 09:19:00,
2013-07-30 05:34:00,57.0,57.0,30.05,NE,55,0.0,0.0,98,0.00,,,0.01,weatherlink.com 1.10,2013-07-30 09:34:00,
2013-07-30 05:49:00,56.8,56.0,30.05,NE,55,0.0,0.0,98,0.00,,,0.01,weatherlink.com 1.10,2013-07-30 09:49:00,
2013-07-30 06:04:00,56.3,56.0,30.05,NE,55,0.0,1.0,97,0.00,,,0.01,weatherlink.com 1.10,2013-07-30 10:04:00,
2013-07-30 06:19:00,55.9,55.0,30.05,NE,56,1.0,4.0,98,0.00,,,0.01,weatherlink.com 1.10,2013-07-30 10:19:00,
2013-07-30 06:35:00,56.5,56.0,30.05,NE,56,0.0,2.0,98,0.00,,,0.01,weatherlink.com 1.10,2013-07-30 10:35:00,
2013-07-30 06:50:00,56.6,56.0,30.06,NE,56,2.0,3.0,98,0.00,,,0.01,weatherlink.com 1.10,2013-07-30 10:50:00,
2013-07-30 07:05:00,56.7,56.0,30.05,NE,56,0.0,1.0,98,0.00,,,0.01,weatherlink.com 1.10,2013-07-30 11:05:00,
2013-07-30 07:20:00,57.1,57.0,30.06,NE,56,2.0,3.0,98,0.00,,,0.01,weatherlink.com 1.10,2013-07-30 11:20:00,
2013-07-30 07:35:00,57.9,57.0,30.06,NE,56,0.0,2.0,97,0.00,,,0.01,weatherlink.com 1.10,2013-07-30 11:35:00,
2013-07-30 07:50:00,59.0,58.0,30.06,NE,56,0.0,2.0,96,0.00,,,0.01,weatherlink.com 1.10,2013-07-30 11:50:00,
2013-07-30 08:05:00,60.8,58.0,30.07,NE,56,0.0,1.0,91,0.00,,,0.01,weatherlink.com 1.10,2013-07-30 12:05:00,
2013-07-30 08:20:00,63.1,61.0,30.07,NE,56,0.0,0.0,93,0.00,,,0.01,weatherlink.com 1.10,2013-07-30 12:20:00,
2013-07-30 08:35:00,65.8,62.0,30.07,SSE,159,0.0,3.0,88,0.00,,,0.01,weatherlink.com 1.10,2013-07-30 12:35:00,
2013-07-30 08:50:00,66.6,60.0,30.07,ENE,60,2.0,3.0,80,0.00,,,0.01,weatherlink.com 1.10,2013-07-30 12:50:00,
2013-07-30 09:05:00,65.3,59.0,30.08,ENE,73,0.0,4.0,80,0.00,,,0.01,weatherlink.com 1.10,2013-07-30 13:05:00,
2013-07-30 09:20:00,65.4,59.0,30.08,SSE,150,0.0,2.0,81,0.00,,,0.01,weatherlink.com 1.10,2013-07-30 13:20:00,
2013-07-30 09:35:00,66.5,58.0,30.07,SSE,148,0.0,8.0,75,0.00,,,0.01,weatherlink.com 1.10,2013-07-30 13:35:00,
2013-07-30 09:50:00,65.9,57.0,30.07,ENE,66,5.0,5.0,72,0.00,,,0.01,weatherlink.com 1.10,2013-07-30 13:50:00,
2013-07-30 10:05:00,66.4,58.0,30.07,NE,45,1.0,5.0,74,0.00,,,0.01,weatherlink.com 1.10,2013-07-30 14:05:00,
2013-07-30 10:20:00,69.5,61.0,30.07,South,184,1.0,3.0,73,0.00,,,0.01,weatherlink.com 1.10,2013-07-30 14:20:00,
2013-07-30 10:35:00,69.1,58.0,30.08,SW,232,3.0,7.0,68,0.00,,,0.01,weatherlink.com 1.10,2013-07-30 14:35:00,
2013-07-30 10:50:00,72.6,59.0,30.08,SSW,209,0.0,8.0,62,0.00,,,0.01,weatherlink.com 1.10,2013-07-30 14:50:00,
2013-07-30 11:05:00,70.8,60.0,30.08,SSW,196,0.0,6.0,68,0.00,,,0.01,weatherlink.com 1.10,2013-07-30 15:05:00,
2013-07-30 11:20:00,71.0,57.0,30.07,ENE,57,0.0,7.0,61,0.00,,,0.01,weatherlink.com 1.10,2013-07-30 15:20:00,
2013-07-30 11:35:00,73.6,62.0,30.07,WSW,241,4.0,7.0,66,0.00,,,0.01,weatherlink.com 1.10,2013-07-30 15:35:00,
2013-07-30 11:50:00,74.8,62.0,30.07,East,101,3.0,5.0,65,0.00,,,0.01,weatherlink.com 1.10,2013-07-30 15:50:00,
2013-07-30 12:05:00,73.6,59.0,30.06,South,188,0.0,7.0,61,0.00,,,0.01,weatherlink.com 1.10,2013-07-30 16:05:00,
2013-07-30 12:20:00,74.0,58.0,30.07,ESE,111,0.0,3.0,57,0.00,,,0.01,weatherlink.com 1.10,2013-07-30 16:20:00,
2013-07-30 12:35:00,70.8,58.0,30.07,NNE,33,1.0,8.0,65,0.00,,,0.01,weatherlink.com 1.10,2013-07-30 16:35:00,
2013-07-30 12:50:00,72.4,59.0,30.06,ENE,66,3.0,5.0,64,0.00,,,0.01,weatherlink.com 1.10,2013-07-30 16:50:00,
2013-07-30 13:05:00,73.6,58.0,30.06,SSE,155,0.0,3.0,59,0.00,,,0.01,weatherlink.com 1.10,2013-07-30 17:05:00,
2013-07-30 13:20:00,73.6,59.0,30.06,East,80,0.0,6.0,61,0.00,,,0.01,weatherlink.com 1.10,2013-07-30 17:20:00,
2013-07-30 13:35:00,74.2,58.0,30.06,ENE,61,0.0,4.0,57,0.00,,,0.01,weatherlink.com 1.10,2013-07-30 17:35:00,
2013-07-30 13:50:00,75.4,61.0,30.05,South,177,0.0,4.0,62,0.00,,,0.01,weatherlink.com 1.10,2013-07-30 17:50:00,
2013-07-30 14:05:00,74.9,63.0,30.05,ENE,70,0.0,4.0,66,0.00,,,0.01,weatherlink.com 1.10,2013-07-30 18:05:00,
2013-07-30 14:20:00,74.1,58.0,30.05,NNE,32,4.0,4.0,58,0.00,,,0.01,weatherlink.com 1.10,2013-07-30 18:20:00,
2013-07-30 14:35:00,74.2,60.0,30.04,SE,146,0.0,3.0,62,0.00,,,0.01,weatherlink.com 1.10,2013-07-30 18:35:00,
2013-07-30 14:50:00,75.7,60.0,30.04,ENE,62,2.0,5.0,59,0.00,,,0.01,weatherlink.com 1.10,2013-07-30 18:50:00,
2013-07-30 15:05:00,77.2,62.0,30.03,NE,38,3.0,7.0,60,0.00,,,0.01,weatherlink.com 1.10,2013-07-30 19:05:00,
2013-07-30 15:20:00,73.8,59.0,30.03,ENE,67,2.0,11.0,61,0.00,,,0.01,weatherlink.com 1.10,2013-07-30 19:20:00,
2013-07-30 15:35:00,73.4,59.0,30.03,NE,52,0.0,6.0,61,0.00,,,0.01,weatherlink.com 1.10,2013-07-30 19:35:00,
2013-07-30 15:50:00,73.5,62.0,30.03,NE,49,0.0,3.0,67,0.00,,,0.01,weatherlink.com 1.10,2013-07-30 19:50:00,
2013-07-30 16:05:00,74.3,60.0,30.02,NE,46,1.0,5.0,61,0.00,,,0.01,weatherlink.com 1.10,2013-07-30 20:05:00,
2013-07-30 16:20:00,74.4,60.0,30.02,ENE,71,0.0,6.0,61,0.00,,,0.01,weatherlink.com 1.10,2013-07-30 20:20:00,
2013-07-30 16:35:00,76.2,57.0,30.02,South,182,1.0,6.0,52,0.00,,,0.01,weatherlink.com 1.10,2013-07-30 20:35:00,
2013-07-30 16:50:00,77.3,61.0,30.02,SSW,196,0.0,3.0,58,0.00,,,0.01,weatherlink.com 1.10,2013-07-30 20:50:00,
2013-07-30 17:05:00,78.0,60.0,30.02,South,184,0.0,8.0,54,0.00,,,0.01,weatherlink.com 1.10,2013-07-30 21:05:00,
2013-07-30 17:20:00,75.7,58.0,30.01,East,94,2.0,3.0,55,0.00,,,0.01,weatherlink.com 1.10,2013-07-30 21:20:00,
2013-07-30 17:35:00,75.4,58.0,30.02,South,169,1.0,4.0,55,0.00,,,0.01,weatherlink.com 1.10,2013-07-30 21:35:00,
2013-07-30 17:50:00,75.1,58.0,30.02,SW,217,0.0,3.0,56,0.00,,,0.01,weatherlink.com 1.10,2013-07-30 21:50:00,
2013-07-30 18:05:00,74.0,60.0,30.02,SSW,196,0.0,1.0,62,0.00,,,0.01,weatherlink.com 1.10,2013-07-30 22:05:00,
2013-07-30 18:20:00,71.6,60.0,30.02,SSW,196,0.0,1.0,67,0.00,,,0.01,weatherlink.com 1.10,2013-07-30 22:20:00,
2013-07-30 18:35:00,70.5,60.0,30.02,SSW,194,0.0,2.0,69,0.00,,,0.01,weatherlink.com 1.10,2013-07-30 22:35:00,
2013-07-30 18:50:00,69.0,60.0,30.03,SSW,194,0.0,0.0,73,0.00,,,0.01,weatherlink.com 1.10,2013-07-30 22:50:00,
2013-07-30 19:05:00,68.2,60.0,30.03,SSW,194,0.0,0.0,74,0.00,,,0.01,weatherlink.com 1.10,2013-07-30 23:05:00,
2013-07-30 19:20:00,67.7,60.0,30.03,East,83,1.0,3.0,75,0.00,,,0.01,weatherlink.com 1.10,2013-07-30 23:20:00,
2013-07-30 19:35:00,66.8,59.0,30.03,East,83,0.0,2.0,77,0.00,,,0.01,weatherlink.com 1.10,2013-07-30 23:35:00,
2013-07-30 19:50:00,67.0,61.0,30.03,East,83,0.0,0.0,80,0.00,,,0.01,weatherlink.com 1.10,2013-07-30 23:50:00,
2013-07-30 20:05:00,66.5,60.0,30.03,East,83,0.0,0.0,80,0.00,,,0.01,weatherlink.com 1.10,2013-07-31 00:05:00,
2013-07-30 20:20:00,66.2,60.0,30.04,East,83,0.0,0.0,81,0.00,,,0.01,weatherlink.com 1.10,2013-07-31 00:20:00,
2013-07-30 20:35:00,65.2,60.0,30.04,East,83,0.0,1.0,82,0.00,,,0.01,weatherlink.com 1.10,2013-07-31 00:35:00,
2013-07-30 20:51:00,64.4,60.0,30.04,East,83,0.0,1.0,85,0.00,,,0.01,weatherlink.com 1.10,2013-07-31 00:51:00,
2013-07-30 21:06:00,63.8,59.0,30.05,East,83,0.0,0.0,85,0.00,,,0.01,weatherlink.com 1.10,2013-07-31 01:06:00,
2013-07-30 21:21:00,63.4,60.0,30.05,East,83,1.0,5.0,88,0.00,,,0.01,weatherlink.com 1.10,2013-07-31 01:21:00,
2013-07-30 21:36:00,62.8,59.0,30.06,East,83,0.0,2.0,88,0.00,,,0.01,weatherlink.com 1.10,2013-07-31 01:36:00,
2013-07-30 21:51:00,62.2,59.0,30.06,East,82,2.0,3.0,90,0.00,,,0.01,weatherlink.com 1.10,2013-07-31 01:51:00,
2013-07-30 22:06:00,61.9,59.0,30.07,East,81,0.0,3.0,90,0.00,,,0.01,weatherlink.com 1.10,2013-07-31 02:06:00,
2013-07-30 22:21:00,61.6,59.0,30.07,East,81,0.0,2.0,91,0.00,,,0.01,weatherlink.com 1.10,2013-07-31 02:21:00,
2013-07-30 22:36:00,61.3,58.0,30.07,East,81,0.0,2.0,90,0.00,,,0.01,weatherlink.com 1.10,2013-07-31 02:36:00,
2013-07-30 22:51:00,60.6,58.0,30.07,East,81,0.0,0.0,91,0.00,,,0.01,weatherlink.com 1.10,2013-07-31 02:51:00,
2013-07-30 23:06:00,60.0,58.0,30.07,East,81,0.0,2.0,93,0.00,,,0.01,weatherlink.com 1.10,2013-07-31 03:06:00,
2013-07-30 23:21:00,59.6,58.0,30.07,East,81,0.0,0.0,93,0.00,,,0.01,weatherlink.com 1.10,2013-07-31 03:21:00,
2013-07-30 23:36:00,59.0,57.0,30.07,East,81,0.0,1.0,94,0.00,,,0.01,weatherlink.com 1.10,2013-07-31 03:36:00,
2013-07-30 23:51:00,58.6,57.0,30.07,East,81,0.0,2.0,94,0.00,,,0.01,weatherlink.com 1.10,2013-07-31 03:51:00,